TimeMST,TemperatureF,Dew PointF,Humidity,Sea Level PressureIn,VisibilityMPH,Wind Direction,Wind SpeedMPH,Gust SpeedMPH,PrecipitationIn,Events,Conditions,WindDirDegrees,DateUTC
12:54 AM,17.1,8.1,68,30.13,10.0,NW,6.9,-,N/A,,Clear,310,2013-02-19 07:54:00
1:54 AM,16.0,7.0,68,30.11,10.0,West,9.2,-,N/A,,Clear,280,2013-02-19 08:54:00
2:54 AM,18.0,8.1,65,30.08,10.0,SW,4.6,-,N/A,,Clear,230,2013-02-19 09:54:00
3:54 AM,14.0,6.1,71,30.09,10.0,NW,5.8,-,N/A,,Clear,320,2013-02-19 10:54:00
4:54 AM,15.1,7.0,70,30.09,10.0,South,10.4,-,N/A,,Clear,180,2013-02-19 11:54:00
5:54 AM,16.0,7.0,68,30.10,10.0,West,4.6,-,N/A,,Clear,260,2013-02-19 12:54:00
6:54 AM,12.9,6.1,74,30.14,10.0,NW,5.8,-,N/A,,Clear,310,2013-02-19 13:54:00
7:54 AM,18.0,10.9,74,30.13,10.0,Calm,Calm,-,N/A,,Clear,0,2013-02-19 14:54:00
8:54 AM,30.0,17.1,59,30.07,10.0,East,3.5,-,N/A,,Clear,80,2013-02-19 15:54:00
9:54 AM,35.1,16.0,46,30.04,10.0,East,4.6,-,N/A,,Clear,80,2013-02-19 16:54:00
11:54 AM,42.1,10.9,28,29.97,10.0,NE,10.4,-,N/A,,Clear,50,2013-02-19 18:54:00
12:54 PM,45.0,9.0,23,29.90,10.0,ENE,9.2,-,N/A,,Clear,60,2013-02-19 19:54:00
1:54 PM,51.1,7.0,17,29.84,10.0,SSE,6.9,-,N/A,,Clear,150,2013-02-19 20:54:00
2:31 PM,53.6,10.4,18,29.81,10.0,South,19.6,35.7,N/A,,Clear,170,2013-02-19 21:31:00
2:54 PM,53.1,10.9,19,29.79,10.0,South,20.7,28.8,N/A,,Clear,170,2013-02-19 21:54:00
3:54 PM,51.1,12.9,22,29.81,10.0,South,27.6,34.5,N/A,,Clear,190,2013-02-19 22:54:00
5:54 PM,45.0,16.0,31,29.81,10.0,South,25.3,34.5,N/A,,Clear,180,2013-02-20 00:54:00
6:54 PM,44.1,16.0,32,29.84,10.0,South,21.9,28.8,N/A,,Clear,180,2013-02-20 01:54:00
7:54 PM,44.1,14.0,30,29.78,10.0,South,33.4,44.9,N/A,,Clear,190,2013-02-20 02:54:00
8:54 PM,39.9,15.1,36,29.80,10.0,South,21.9,31.1,N/A,,Partly Cloudy,180,2013-02-20 03:54:00
9:54 PM,39.0,17.1,41,29.76,10.0,SSE,21.9,27.6,N/A,,Clear,160,2013-02-20 04:54:00
11:54 PM,34.0,17.1,50,29.73,10.0,South,9.2,-,N/A,,Clear,180,2013-02-20 06:54:00